EDT,Max TemperatureF,Mean TemperatureF,Min TemperatureF,Max Dew PointF,MeanDew PointF,Min DewpointF,Max Humidity, Mean Humidity, Min Humidity, Max Sea Level PressureIn, Mean Sea Level PressureIn, Min Sea Level PressureIn, Max VisibilityMiles, Mean VisibilityMiles, Min VisibilityMiles, Max Wind SpeedMPH, Mean Wind SpeedMPH, Max Gust SpeedMPH,PrecipitationIn, CloudCover, Events, WindDirDegrees
2013-6-1,85,76,67,68,65,63,90,73,55,29.94,29.84,29.76,10,9,2,28,12,32,1.09,7,Rain-Thunderstorm,215
2013-6-2,72,64,55,66,62,49,100,83,66,29.91,29.76,29.70,10,7,1,32,15,45,1.12,7,Rain-Thunderstorm,211
2013-6-3,58,53,47,48,44,40,83,75,66,30.05,29.99,29.93,10,10,10,21,11,24,0.00,4,,260
2013-6-4,67,57,47,43,40,33,77,53,29,30.18,30.14,30.06,10,10,10,15,7,24,0.00,2,,283
2013-6-5,70,60,49,48,44,37,86,63,39,30.22,30.15,30.06,10,10,10,18,8,23,0.00,6,,70
2013-6-6,60,57,53,58,53,40,100,76,51,30.05,29.91,29.83,10,6,2,18,9,24,1.40,8,Rain,69
2013-6-7,61,58,54,57,55,54,100,89,78,29.86,29.84,29.82,10,5,1,12,6,15,0.01,8,Rain,351
2013-6-8,62,59,56,56,55,53,100,89,78,30.09,29.94,29.83,10,6,0,16,8,21,0.04,8,Fog-Rain,273
2013-6-9,77,64,50,58,53,49,96,70,43,30.20,30.14,30.09,10,10,10,10,5,13,0.00,6,,133
2013-6-10,74,69,64,66,62,56,93,83,73,30.08,29.86,29.70,10,10,2,20,8,28,0.16,8,Rain,99
2013-6-11,71,66,60,63,60,58,100,81,61,29.86,29.74,29.66,10,8,2,20,9,28,0.20,7,Rain,257
2013-6-12,77,67,56,58,54,52,93,68,43,29.93,29.86,29.75,10,10,6,10,3,15,0.00,5,,77
2013-6-13,69,63,57,63,59,55,100,84,68,29.80,29.60,29.50,10,6,0,21,9,28,0.94,8,Rain,27
2013-6-14,72,64,55,59,56,54,100,83,66,30.01,29.92,29.80,10,9,3,17,7,21,0.00,5,,277
2013-6-15,69,61,53,57,51,44,100,71,42,30.08,30.02,29.96,10,9,7,18,8,23,0.00,5,,231
2013-6-16,70,66,62,64,60,53,93,80,67,29.96,29.80,29.72,10,8,1,23,12,30,0.24,7,Rain,222
2013-6-17,75,68,61,61,58,53,93,73,53,29.93,29.88,29.82,10,10,5,21,12,26,0.09,4,Rain-Thunderstorm,233
2013-6-18,69,62,55,57,51,45,93,67,40,30.04,29.97,29.89,10,10,8,17,8,23,T,5,Rain,38
2013-6-19,68,60,51,50,44,38,89,62,34,30.20,30.14,30.04,10,10,10,14,5,20,0.00,1,,20
2013-6-20,78,64,50,49,45,36,80,51,22,30.25,30.22,30.19,10,10,10,14,4,21,0.00,2,,111
2013-6-21,83,68,53,56,49,43,77,55,32,30.27,30.22,30.17,10,10,10,13,4,15,0.00,3,,179
2013-6-22,85,75,64,67,62,55,79,65,51,30.16,30.08,30.01,10,10,9,26,11,36,0.08,5,,198
2013-6-23,85,78,70,70,66,64,90,71,51,30.07,30.04,30.00,10,8,1,24,11,31,0.52,6,Rain-Thunderstorm,231
2013-6-24,81,77,72,66,64,61,79,68,56,30.06,30.01,29.95,10,10,10,25,13,33,0.00,4,,226
2013-6-25,76,73,69,67,65,62,84,76,68,29.95,29.88,29.81,10,9,2,28,13,37,0.10,7,Rain,228
2013-6-26,78,73,68,67,65,62,90,77,64,29.86,29.83,29.79,10,10,9,21,12,25,0.00,6,,230
2013-6-27,79,73,66,70,66,63,93,83,73,29.80,29.71,29.64,10,9,2,14,4,16,0.27,7,Rain-Thunderstorm,44
2013-6-28,73,68,62,65,64,61,100,90,79,29.65,29.54,29.50,10,7,2,14,3,17,0.75,8,Rain-Thunderstorm,17
2013-6-29,74,68,62,63,61,59,93,81,68,29.71,29.56,29.49,10,8,3,13,6,17,0.15,7,Rain,343
2013-6-30,77,69,61,64,61,59,97,79,60,29.92,29.81,29.71,10,10,10,15,5,17,0.00,5,,39